[[{"header":{"parameterUnit":"m.s-1","parameterCategory":1,"la1":30.2992,"la2":30.254,"lo1":-89.0895,"lo2":-89.0443,"dy":0.0025,"dx":0.0025,"nx":19,"ny":19,"refTime":"2026-03-23T03:00:00:Z","depth":0,"parameterNumber":2,"parameterNumberName":"U-component_of_WINDS"},"data":[0,0,0,-2.4852,-2.4852,-2.4825,-2.4825,-2.4818,-2.4818,0,0,0,0,0,0,0,0,0,0,0,-2.4875,-2.4876,-2.4852,-2.4852,-2.4825,-2.4825,-2.4818,-2.4818,0,0,0,0,0,0,0,0,0,0,0,-2.4875,-2.4876,-2.4876,-2.4852,-2.4826,-2.4825,-2.4818,-2.4828,0,0,0,0,0,0,0,0,0,0,-2.4849,-2.4886,-2.4876,-2.4876,-2.4851,-2.4826,-2.4825,-2.4828,-2.4828,-2.4841,0,-2.4857,0,-2.4837,-2.4819,-2.4819,0,0,0,-2.484,-2.4887,-2.4866,-2.4876,-2.4851,-2.4826,-2.4834,-2.4828,-2.4827,-2.484,-2.4856,-2.4855,-2.4837,-2.4819,-2.4819,-2.4935,-2.4936,0,0,-2.4841,-2.4879,-2.4866,-2.4866,-2.4872,-2.4835,-2.4833,-2.4827,-2.4847,-2.4856,-2.4855,-2.4837,-2.4819,-2.482,-2.4934,-2.4935,0,0,0,-2.4853,-2.4881,-2.4859,-2.4867,-2.486,-2.4834,-2.4833,-2.4847,-2.4837,-2.4855,-2.4837,-2.482,-2.482,-2.4933,-2.4934,-2.5026,0,0,0,-2.4854,-2.4888,-2.486,-2.4883,-2.4861,-2.4854,-2.4854,-2.4838,-2.4836,-2.4837,-2.482,-2.482,-2.4931,-2.4933,-2.5021,-2.5064,0,0,0,-2.4872,-2.489,-2.4891,-2.4885,-2.4875,-2.4853,-2.4842,-2.4836,-2.4826,-2.4819,-2.482,-2.493,-2.4933,-2.5017,-2.5057,-2.5107,0,0,0,-2.4902,-2.4973,-2.4893,-2.4966,-2.4876,-2.4909,-2.4841,-2.4864,-2.487,-2.482,-2.4931,-2.4934,-2.5015,-2.5052,-2.5102,-2.5158,-2.5184,0,0,-2.5013,-2.4988,-2.5028,-2.4955,-2.5013,-2.491,-2.4981,-2.495,-2.4914,-2.493,-2.4932,-2.5023,-2.5056,-2.5106,-2.5313,-2.5335,0,0,0,-2.5076,-2.5106,-2.5112,-2.5119,-2.5096,-2.5081,-2.5034,-2.5023,-2.5034,-2.493,-2.5052,-2.5071,-2.5099,-2.5123,-2.5141,-2.5163,-2.4947,-2.4946,-2.4946,-2.5291,-2.524,-2.5303,-2.525,-2.5257,-2.5208,-2.5209,-2.5185,-2.5132,-2.5162,-2.5167,-2.5299,-2.533,-2.5343,-2.5366,-2.519,-2.5191,-2.5191,-2.5191,-2.5451,-2.5485,-2.5412,-2.5447,-2.5394,-2.5422,-2.5377,-2.5338,-2.5358,-2.5291,-2.5313,-2.5247,-2.5368,-2.5386,-2.5198,-2.5197,-2.5196,-2.5195,-2.5195,-2.5588,-2.5596,-2.5579,-2.5583,-2.5592,-2.5534,-2.5556,-2.5505,-2.5458,-2.548,-2.5481,-2.5479,-2.5473,-2.5483,-2.5484,-2.5484,-2.5484,-2.5485,-2.5485,-2.5738,-2.5716,-2.5741,-2.5722,-2.5719,-2.5709,-2.5659,-2.5655,-2.5638,-2.5599,-2.5599,-2.5545,-2.5388,-2.5351,-2.5492,-2.5491,-2.549,-2.5489,-2.5489,-2.5924,-2.5873,-2.5912,-2.5909,-2.5882,-2.5894,-2.5828,-2.5824,-2.5813,-2.5825,-2.5765,-2.5656,-2.5627,-2.5613,-2.5582,-2.5774,-2.5774,-2.5774,-2.5774,-2.6042,-2.6021,-2.6048,-2.6047,-2.604,-2.5984,-2.6029,-2.599,-2.5942,-2.5932,-2.5896,-2.585,-2.5837,-2.5815,-2.5796,-2.5767,-2.6002,-2.6003,-2.6003,-2.6154,-2.613,-2.6179,-2.613,-2.6105,-2.6084,-2.6125,-2.6127,-2.6061,-2.6011,-2.5923,-2.5914,-2.5838,-2.5816,-2.5768,-2.574,-2.5685,0,0]},{"header":{"parameterUnit":"m.s-1","parameterCategory":1,"la1":30.2992,"la2":30.254,"lo1":-89.0895,"lo2":-89.0443,"dy":0.0025,"dx":0.0025,"nx":19,"ny":19,"refTime":"2026-03-23T03:00:00:Z","depth":0,"parameterNumber":3,"parameterNumberName":"V-component_of_WINDS"},"data":[0,0,0,-2.8968,-2.897,-2.9089,-2.909,-2.9234,-2.9236,0,0,0,0,0,0,0,0,0,0,0,-2.893,-2.8931,-2.8967,-2.897,-2.9089,-2.909,-2.9234,-2.9236,0,0,0,0,0,0,0,0,0,0,0,-2.893,-2.8931,-2.8932,-2.8971,-2.9089,-2.909,-2.9234,-2.9146,0,0,0,0,0,0,0,0,0,0,-2.9032,-2.8996,-2.8931,-2.8932,-2.8972,-2.9089,-2.909,-2.9142,-2.9152,-2.9178,0,-2.9203,0,-2.9222,-2.9245,-2.9245,0,0,0,-2.8972,-2.8988,-2.9022,-2.8932,-2.8973,-2.9089,-2.9036,-2.9147,-2.9158,-2.9191,-2.9205,-2.921,-2.9224,-2.9246,-2.9247,-2.9398,-2.9399,0,0,-2.8965,-2.895,-2.9014,-2.9029,-2.9012,-2.9032,-2.904,-2.9154,-2.9168,-2.9205,-2.9214,-2.9226,-2.9247,-2.9248,-2.9398,-2.9399,0,0,0,-2.8945,-2.8945,-2.8977,-2.9023,-2.9045,-2.9035,-2.9044,-2.9163,-2.9174,-2.9215,-2.9228,-2.9248,-2.9249,-2.9397,-2.9398,-2.9416,0,0,0,-2.8941,-2.8934,-2.8974,-2.8966,-2.9043,-2.9106,-2.905,-2.9166,-2.918,-2.9227,-2.9248,-2.9251,-2.9396,-2.9398,-2.9414,-2.9427,0,0,0,-2.8923,-2.8932,-2.8948,-2.8965,-2.9016,-2.9104,-2.9123,-2.917,-2.9188,-2.9246,-2.9251,-2.9396,-2.9397,-2.9412,-2.9424,-2.9462,0,0,0,-2.8899,-2.8962,-2.8948,-2.9024,-2.9015,-2.9115,-2.9122,-2.9197,-2.9249,-2.9248,-2.9397,-2.9398,-2.9412,-2.9422,-2.946,-2.9492,-2.9503,0,0,-2.8971,-2.8971,-2.9016,-2.9007,-2.9107,-2.9098,-2.92,-2.9261,-2.9279,-2.9357,-2.9361,-2.9415,-2.9424,-2.9462,-2.9575,-2.9584,0,0,0,-2.9034,-2.9066,-2.9096,-2.9145,-2.9194,-2.9237,-2.9284,-2.9306,-2.9374,-2.9317,-2.9439,-2.9445,-2.9468,-2.9484,-2.9492,-2.9512,-2.9405,-2.9405,-2.9404,-2.9113,-2.9134,-2.9211,-2.9246,-2.9293,-2.9341,-2.9381,-2.9419,-2.9426,-2.9454,-2.9478,-2.9544,-2.9562,-2.9568,-2.9589,-2.9496,-2.9496,-2.9496,-2.9496,-2.922,-2.9269,-2.9277,-2.9354,-2.9374,-2.9438,-2.9486,-2.9489,-2.955,-2.9529,-2.955,-2.9524,-2.9578,-2.9597,-2.9498,-2.9498,-2.9497,-2.9497,-2.9497,-2.9274,-2.9301,-2.9328,-2.9401,-2.9455,-2.9487,-2.9546,-2.9563,-2.9579,-2.9599,-2.9625,-2.9625,-2.9626,-2.9611,-2.9611,-2.9611,-2.9611,-2.9611,-2.9612,-2.932,-2.935,-2.9398,-2.9455,-2.9488,-2.9534,-2.9582,-2.9615,-2.9655,-2.9662,-2.9662,-2.9665,-2.9579,-2.9557,-2.9615,-2.9615,-2.9614,-2.9614,-2.9613,-2.942,-2.94,-2.9475,-2.9508,-2.9575,-2.9626,-2.9647,-2.9712,-2.9741,-2.9769,-2.9767,-2.9701,-2.9702,-2.9696,-2.9678,-2.9763,-2.9763,-2.9763,-2.9763,-2.9465,-2.9468,-2.9547,-2.96,-2.9653,-2.9679,-2.976,-2.9797,-2.9832,-2.9851,-2.984,-2.9818,-2.9811,-2.9815,-2.9807,-2.979,-2.9902,-2.9902,-2.9902,-2.9527,-2.9535,-2.9603,-2.9638,-2.9692,-2.9736,-2.9813,-2.9871,-2.9906,-2.9908,-2.9865,-2.986,-2.9823,-2.981,-2.9812,-2.9798,-2.9767,0,0]}]]